| time (UTC) | temp F | wind direction | speed knots | gust knots | rain 1hr in | rain 24hr in | rain mn in | humidity % | barometer mb |
| 20260506122132 | 74 | 125 | 7.8 | 14.8 | 0.00 | 0.00 | 0.00 | 43 | 1005.8 |
| 20260506121632 | 74 | 115 | 7.8 | 14.8 | 0.00 | 0.00 | 0.00 | 44 | 1005.7 |
| 20260506121132 | 74 | 154 | 7.8 | 14.8 | 0.00 | 0.00 | 0.00 | 42 | 1005.7 |
| 20260506120631 | 73 | 92 | 7.8 | 14.8 | 0.00 | 0.00 | 0.00 | 44 | 1005.7 |
| 20260506120130 | 72 | 117 | 7.0 | 13.0 | 0.00 | 0.00 | 0.00 | 45 | 1005.9 |
| 20260506115634 | 71 | 128 | 7.0 | 14.8 | 0.00 | 0.00 | 0.00 | 45 | 1006.0 |
| 20260506115130 | 71 | 117 | 7.8 | 14.8 | 0.00 | 0.00 | 0.00 | 45 | 1006.0 |
| 20260506114629 | 71 | 162 | 6.1 | 10.4 | 0.00 | 0.00 | 0.00 | 42 | 1006.1 |
| 20260506114128 | 71 | 193 | 4.3 | 8.7 | 0.00 | 0.00 | 0.00 | 46 | 1006.1 |
| 20260506113628 | 71 | 142 | 3.5 | 8.7 | 0.00 | 0.00 | 0.00 | 47 | 1006.1 |
| 20260506113128 | 71 | 80 | 5.2 | 13.0 | 0.00 | 0.00 | 0.00 | 48 | 1006.1 |
| 20260506112628 | 71 | 133 | 4.3 | 13.0 | 0.00 | 0.00 | 0.00 | 47 | 1006.3 |
| 20260506112126 | 72 | 127 | 3.5 | 9.6 | 0.00 | 0.00 | 0.00 | 45 | 1006.3 |
| 20260506111626 | 72 | 106 | 4.3 | 8.7 | 0.00 | 0.00 | 0.00 | 45 | 1006.4 |
| 20260506111126 | 72 | 83 | 3.5 | 8.7 | 0.00 | 0.00 | 0.00 | 46 | 1006.4 |
| 20260506110626 | 72 | 116 | 4.3 | 8.7 | 0.00 | 0.00 | 0.00 | 48 | 1006.5 |
| 20260506110129 | 71 | 136 | 5.2 | 9.6 | 0.00 | 0.00 | 0.00 | 47 | 1006.6 |
| 20260506105626 | 71 | 133 | 4.3 | 9.6 | 0.00 | 0.00 | 0.00 | 46 | 1006.7 |
| 20260506105125 | 71 | 105 | 3.5 | 9.6 | 0.00 | 0.00 | 0.00 | 45 | 1006.6 |
| 20260506104625 | 71 | 101 | 1.7 | 5.2 | 0.00 | 0.00 | 0.00 | 46 | 1006.6 |
| 20260506104125 | 71 | 131 | 0.9 | 5.2 | 0.00 | 0.00 | 0.00 | 46 | 1006.7 |
| 20260506103626 | 71 | 90 | 2.6 | 7.0 | 0.00 | 0.00 | 0.00 | 44 | 1006.8 |
| 20260506103130 | 71 | 122 | 4.3 | 9.6 | 0.00 | 0.00 | 0.00 | 45 | 1006.8 |
| 20260506102619 | 71 | 119 | 5.2 | 9.6 | 0.00 | 0.00 | 0.00 | 43 | 1006.8 |
| 20260506102118 | 71 | 109 | 5.2 | 8.7 | 0.00 | 0.00 | 0.00 | 46 | 1006.9 |
| 20260506101615 | 71 | 105 | 5.2 | 9.6 | 0.00 | 0.00 | 0.00 | 43 | 1006.9 |
| 20260506101114 | 71 | 124 | 3.5 | 9.6 | 0.00 | 0.00 | 0.00 | 42 | 1006.9 |
| 20260506100612 | 71 | 122 | 2.6 | 6.1 | 0.00 | 0.00 | 0.00 | 43 | 1007.0 |
| 20260506100110 | 70 | 200 | 2.6 | 6.1 | 0.00 | 0.00 | 0.00 | 49 | 1007.1 |
| 20260506095610 | 69 | 146 | 1.7 | 4.3 | 0.00 | 0.00 | 0.00 | 48 | 1007.1 |
| 20260506095109 | 69 | 40 | 2.6 | 4.3 | 0.00 | 0.00 | 0.00 | 49 | 1007.1 |
| 20260506094610 | 70 | 36 | 2.6 | 5.2 | 0.00 | 0.00 | 0.00 | 48 | 1007.3 |
| 20260506094109 | 69 | 11 | 2.6 | 5.2 | 0.00 | 0.00 | 0.00 | 52 | 1007.3 |
| 20260506093609 | 69 | 101 | 2.6 | 4.3 | 0.00 | 0.00 | 0.00 | 49 | 1007.4 |
| 20260506093108 | 69 | 165 | 2.6 | 7.8 | 0.00 | 0.00 | 0.00 | 50 | 1007.4 |
| 20260506092607 | 69 | 126 | 3.5 | 7.8 | 0.00 | 0.00 | 0.00 | 51 | 1007.4 |
| 20260506092104 | 70 | 171 | 3.5 | 6.1 | 0.00 | 0.00 | 0.00 | 50 | 1007.3 |
| 20260506091605 | 70 | 219 | 3.5 | 6.1 | 0.00 | 0.00 | 0.00 | 48 | 1007.5 |
| 20260506091103 | 70 | 227 | 3.5 | 7.0 | 0.00 | 0.00 | 0.00 | 47 | 1007.6 |
| 20260506090603 | 70 | 217 | 3.5 | 7.0 | 0.00 | 0.00 | 0.00 | 50 | 1007.7 |
| 20260506090109 | 70 | 244 | 3.5 | 9.6 | 0.00 | 0.00 | 0.00 | 48 | 1007.6 |
| 20260506085601 | 70 | 184 | 4.3 | 9.6 | 0.00 | 0.00 | 0.00 | 48 | 1007.5 |
| 20260506085103 | 70 | 169 | 3.5 | 8.7 | 0.00 | 0.00 | 0.00 | 50 | 1007.6 |
| 20260506084600 | 69 | 223 | 4.3 | 9.6 | 0.00 | 0.00 | 0.00 | 50 | 1007.6 |
| 20260506084053 | 69 | 124 | 5.2 | 9.6 | 0.00 | 0.00 | 0.00 | 52 | 1007.7 |
| 20260506083557 | 69 | 173 | 2.6 | 7.8 | 0.00 | 0.00 | 0.00 | 50 | 1007.7 |
| 20260506083051 | 69 | 180 | 1.7 | 7.8 | 0.00 | 0.00 | 0.00 | 53 | 1007.7 |
| 20260506082606 | 68 | 190 | 2.6 | 4.3 | 0.00 | 0.00 | 0.00 | 57 | 1007.8 |
| 20260506082047 | 67 | 124 | 1.7 | 4.3 | 0.00 | 0.00 | 0.00 | 56 | 1007.8 |
| 20260506081556 | 67 | 334 | 1.7 | 5.2 | 0.00 | 0.00 | 0.00 | 57 | 1007.8 |
| 20260506081049 | 66 | 253 | 2.6 | 6.1 | 0.00 | 0.00 | 0.00 | 59 | 1007.8 |
| 20260506080545 | 66 | 196 | 3.5 | 7.0 | 0.00 | 0.00 | 0.00 | 56 | 1007.7 |
| 20260506073040 | 64 | 320 | 1.7 | 5.2 | 0.00 | 0.00 | 0.00 | 63 | 1007.9 |
| 20260506072541 | 64 | 304 | 2.6 | 6.1 | 0.00 | 0.00 | 0.00 | 66 | 1007.9 |
| 20260506072041 | 64 | 261 | 2.6 | 6.1 | 0.00 | 0.00 | 0.00 | 68 | 1008.1 |
| 20260506071542 | 63 | 266 | 2.6 | 4.3 | 0.00 | 0.00 | 0.00 | 69 | 1008.1 |
| 20260506071032 | 63 | 268 | 2.6 | 4.3 | 0.00 | 0.00 | 0.00 | 68 | 1008.1 |
| 20260506070530 | 63 | 301 | 2.6 | 4.3 | 0.00 | 0.00 | 0.00 | 67 | 1008.1 |
| 20260506062030 | 60 | 288 | 3.5 | 7.0 | 0.00 | 0.00 | 0.00 | 73 | 1008.0 |
| 20260506061529 | 60 | 259 | 3.5 | 7.0 | 0.00 | 0.00 | 0.00 | 71 | 1008.1 |
| 20260506061027 | 60 | 263 | 4.3 | 8.7 | 0.00 | 0.00 | 0.00 | 72 | 1008.0 |
| 20260506060527 | 60 | 227 | 4.3 | 8.7 | 0.00 | 0.00 | 0.00 | 73 | 1008.0 |
| 20260506051022 | 53 | 232 | 2.6 | 6.1 | 0.00 | 0.00 | 0.00 | 88 | 1008.0 |
| 20260506050521 | 53 | 213 | 3.5 | 5.2 | 0.00 | 0.00 | 0.00 | 90 | 1008.1 |
| 20260506045019 | 51 | 222 | 2.6 | 6.1 | 0.00 | 0.00 | 0.00 | 94 | 1008.1 |
| 20260506044520 | 50 | 222 | 2.6 | 5.2 | 0.00 | 0.00 | 0.00 | 94 | 1008.2 |
| 20260506044020 | 49 | 213 | 3.5 | 5.2 | 0.00 | 0.00 | 0.00 | 94 | 1008.2 |
| 20260506043517 | 49 | 225 | 3.5 | 5.2 | 0.00 | 0.00 | 0.00 | 93 | 1008.1 |
| 20260506043011 | 48 | 217 | 1.7 | 5.2 | 0.00 | 0.00 | 0.00 | 92 | 1008.1 |
| 20260506042511 | 48 | 228 | 0.9 | 2.6 | 0.00 | 0.00 | 0.00 | 91 | 1008.1 |
| 20260506042013 | 48 | 227 | 0.0 | 0.9 | 0.00 | 0.00 | 0.00 | 90 | 1008.0 |
| 20260506041513 | 48 | 227 | 0.0 | 0.9 | 0.00 | 0.00 | 0.00 | 90 | 1007.8 |
| 20260506041012 | 48 | 227 | 0.0 | 0.9 | 0.00 | 0.00 | 0.00 | 90 | 1007.7 |
| 20260506040509 | 48 | 227 | 0.0 | 1.7 | 0.00 | 0.00 | 0.00 | 90 | 1007.6 |
| 20260506040008 | 48 | 227 | 0.9 | 1.7 | 0.00 | 0.00 | 0.00 | 90 | 1007.7 |
| 20260506035503 | 48 | 227 | 0.9 | 1.7 | 0.00 | 0.00 | 0.00 | 90 | 1007.6 |
| 20260506035002 | 48 | 227 | 0.9 | 1.7 | 0.00 | 0.00 | 0.00 | 89 | 1007.5 |
| 20260506034505 | 48 | 227 | 0.0 | 0.0 | 0.00 | 0.00 | 0.00 | 89 | 1007.4 |
| 20260506034004 | 49 | 227 | 0.0 | 0.0 | 0.00 | 0.00 | 0.00 | 89 | 1007.4 |
| 20260506033502 | 49 | 227 | 0.0 | 0.0 | 0.00 | 0.00 | 0.00 | 89 | 1007.4 |
| 20260506033005 | 49 | 227 | 0.0 | 0.0 | 0.00 | 0.00 | 0.00 | 89 | 1007.4 |
| 20260506032502 | 49 | 227 | 0.0 | 0.0 | 0.00 | 0.00 | 0.00 | 89 | 1007.4 |
| 20260506031955 | 49 | 227 | 0.0 | 0.0 | 0.00 | 0.00 | 0.00 | 88 | 1007.4 |
| 20260506031455 | 49 | 227 | 0.0 | 0.0 | 0.00 | 0.00 | 0.00 | 86 | 1007.3 |
| 20260506030951 | 49 | 227 | 0.0 | 0.0 | 0.00 | 0.00 | 0.00 | 85 | 1007.3 |
| 20260506030452 | 50 | 227 | 0.0 | 0.0 | 0.00 | 0.00 | 0.00 | 85 | 1007.3 |
| 20260506025949 | 50 | 227 | 0.0 | 0.0 | 0.00 | 0.00 | 0.00 | 85 | 1007.1 |
| 20260506025447 | 51 | 227 | 0.0 | 0.9 | 0.00 | 0.00 | 0.00 | 85 | 1007.3 |
| 20260506024946 | 51 | 227 | 0.9 | 2.6 | 0.00 | 0.00 | 0.00 | 85 | 1007.3 |
| 20260506024445 | 51 | 227 | 1.7 | 2.6 | 0.00 | 0.00 | 0.00 | 85 | 1007.4 |
| 20260506023946 | 51 | 227 | 0.9 | 2.6 | 0.00 | 0.00 | 0.00 | 86 | 1007.4 |
| 20260506023446 | 52 | 223 | 0.9 | 4.3 | 0.00 | 0.00 | 0.00 | 88 | 1007.5 |
| 20260506022945 | 52 | 221 | 1.7 | 4.3 | 0.00 | 0.00 | 0.00 | 89 | 1007.5 |
| 20260506022441 | 52 | 228 | 2.6 | 4.3 | 0.00 | 0.00 | 0.00 | 89 | 1007.5 |
| 20260506021944 | 52 | 222 | 2.6 | 4.3 | 0.00 | 0.00 | 0.00 | 90 | 1007.5 |
| 20260506021441 | 52 | 236 | 1.7 | 3.5 | 0.00 | 0.00 | 0.00 | 89 | 1007.5 |
| 20260506020941 | 52 | 239 | 1.7 | 2.6 | 0.00 | 0.00 | 0.00 | 89 | 1007.5 |
| 20260506020442 | 52 | 239 | 1.7 | 3.5 | 0.00 | 0.00 | 0.00 | 89 | 1007.5 |
| 20260506015941 | 53 | 239 | 1.7 | 3.5 | 0.00 | 0.00 | 0.00 | 90 | 1007.6 |
| 20260506015440 | 53 | 239 | 2.6 | 4.3 | 0.00 | 0.00 | 0.00 | 90 | 1007.6 |
| 20260506014936 | 53 | 247 | 2.6 | 4.3 | 0.00 | 0.00 | 0.00 | 90 | 1007.6 |
| 20260506014436 | 53 | 259 | 1.7 | 3.5 | 0.00 | 0.00 | 0.00 | 89 | 1007.6 |
| 20260506013937 | 53 | 258 | 1.7 | 5.2 | 0.00 | 0.00 | 0.00 | 89 | 1007.6 |
| 20260506013434 | 53 | 263 | 1.7 | 5.2 | 0.00 | 0.00 | 0.00 | 89 | 1007.6 |
| 20260506012930 | 53 | 261 | 1.7 | 3.5 | 0.00 | 0.00 | 0.00 | 88 | 1007.6 |
| 20260506012432 | 53 | 259 | 0.9 | 3.5 | 0.00 | 0.00 | 0.00 | 88 | 1007.6 |
| 20260506011932 | 53 | 258 | 0.0 | 2.6 | 0.00 | 0.00 | 0.00 | 87 | 1007.6 |
| 20260506011432 | 53 | 258 | 0.9 | 2.6 | 0.00 | 0.00 | 0.00 | 87 | 1007.6 |
| 20260506010929 | 53 | 258 | 0.9 | 3.5 | 0.00 | 0.00 | 0.00 | 87 | 1007.6 |
| 20260506010428 | 54 | 259 | 0.9 | 3.5 | 0.00 | 0.00 | 0.00 | 87 | 1007.6 |
| 20260506005929 | 54 | 254 | 1.7 | 3.5 | 0.00 | 0.00 | 0.00 | 87 | 1007.5 |
| 20260506005430 | 54 | 250 | 1.7 | 4.3 | 0.00 | 0.00 | 0.00 | 87 | 1007.6 |
| 20260506004931 | 54 | 261 | 1.7 | 4.3 | 0.00 | 0.00 | 0.00 | 87 | 1007.5 |
| 20260506004430 | 54 | 265 | 1.7 | 4.3 | 0.00 | 0.00 | 0.00 | 86 | 1007.5 |
| 20260506003929 | 54 | 271 | 1.7 | 5.2 | 0.00 | 0.00 | 0.00 | 86 | 1007.4 |
| 20260506003437 | 54 | 290 | 2.6 | 6.1 | 0.00 | 0.00 | 0.00 | 86 | 1007.3 |
| 20260506002929 | 54 | 255 | 3.5 | 7.0 | 0.00 | 0.00 | 0.00 | 86 | 1007.4 |
| 20260506002429 | 55 | 188 | 3.5 | 7.8 | 0.00 | 0.00 | 0.00 | 85 | 1007.3 |
| 20260506001929 | 55 | 255 | 3.5 | 7.8 | 0.00 | 0.00 | 0.00 | 84 | 1007.4 |
| 20260506001430 | 55 | 284 | 3.5 | 7.8 | 0.00 | 0.00 | 0.00 | 83 | 1007.1 |
| 20260506000933 | 56 | 290 | 3.5 | 5.2 | 0.00 | 0.00 | 0.00 | 82 | 1007.1 |
| 20260506000423 | 56 | 274 | 2.6 | 5.2 | 0.00 | 0.00 | 0.00 | 81 | 1007.0 |
| 20260505235925 | 56 | 277 | 2.6 | 7.0 | 0.00 | 0.00 | 0.00 | 81 | 1007.0 |
| 20260505235423 | 56 | 275 | 3.5 | 7.0 | 0.00 | 0.00 | 0.00 | 81 | 1006.9 |
| 20260505234924 | 56 | 279 | 4.3 | 8.7 | 0.00 | 0.00 | 0.00 | 80 | 1006.9 |
| 20260505234422 | 57 | 290 | 4.3 | 8.7 | 0.00 | 0.00 | 0.00 | 80 | 1006.9 |
| 20260505233923 | 57 | 283 | 4.3 | 7.8 | 0.00 | 0.00 | 0.00 | 79 | 1006.9 |
| 20260505233421 | 57 | 306 | 5.2 | 9.6 | 0.00 | 0.00 | 0.00 | 78 | 1006.9 |
| 20260505232921 | 58 | 284 | 5.2 | 9.6 | 0.00 | 0.00 | 0.00 | 78 | 1006.8 |
| 20260505232421 | 58 | 313 | 5.2 | 10.4 | 0.00 | 0.00 | 0.00 | 76 | 1006.8 |
| 20260505231917 | 58 | 296 | 5.2 | 10.4 | 0.00 | 0.00 | 0.00 | 76 | 1006.8 |
| 20260505231414 | 58 | 316 | 6.1 | 11.3 | 0.00 | 0.00 | 0.00 | 76 | 1006.6 |
| 20260505230916 | 58 | 300 | 6.1 | 12.2 | 0.00 | 0.00 | 0.00 | 76 | 1006.5 |
| 20260505230415 | 59 | 300 | 6.1 | 12.2 | 0.00 | 0.00 | 0.00 | 75 | 1006.4 |
| 20260505225915 | 59 | 325 | 5.2 | 10.4 | 0.00 | 0.00 | 0.00 | 75 | 1006.5 |
| 20260505225418 | 59 | 327 | 5.2 | 9.6 | 0.00 | 0.00 | 0.00 | 74 | 1006.4 |
| 20260505224915 | 59 | 299 | 6.1 | 10.4 | 0.00 | 0.00 | 0.00 | 73 | 1006.4 |
| 20260505224415 | 60 | 303 | 6.1 | 13.9 | 0.00 | 0.00 | 0.00 | 73 | 1006.4 |
| 20260505223915 | 60 | 319 | 6.1 | 13.9 | 0.00 | 0.00 | 0.00 | 72 | 1006.4 |
| 20260505223415 | 60 | 299 | 6.1 | 13.9 | 0.00 | 0.00 | 0.00 | 71 | 1006.5 |
| 20260505222915 | 61 | 276 | 7.8 | 14.8 | 0.00 | 0.00 | 0.00 | 70 | 1006.6 |
| 20260505222414 | 61 | 287 | 7.8 | 18.2 | 0.00 | 0.00 | 0.00 | 68 | 1006.7 |
| 20260505221915 | 61 | 291 | 7.8 | 18.2 | 0.00 | 0.00 | 0.00 | 66 | 1006.5 |
| 20260505221416 | 62 | 288 | 7.0 | 15.6 | 0.00 | 0.00 | 0.00 | 65 | 1006.4 |
| 20260505220917 | 62 | 263 | 6.1 | 12.2 | 0.00 | 0.00 | 0.00 | 64 | 1006.1 |
| 20260505220415 | 62 | 306 | 7.0 | 13.9 | 0.00 | 0.00 | 0.00 | 63 | 1005.9 |
| 20260505215916 | 62 | 329 | 6.1 | 13.9 | 0.00 | 0.00 | 0.00 | 63 | 1006.0 |
| 20260505215416 | 62 | 278 | 5.2 | 13.0 | 0.00 | 0.00 | 0.00 | 63 | 1006.1 |
| 20260505214914 | 62 | 304 | 5.2 | 10.4 | 0.00 | 0.00 | 0.00 | 62 | 1006.1 |
| 20260505214414 | 62 | 294 | 6.1 | 13.0 | 0.00 | 0.00 | 0.00 | 62 | 1006.2 |
| 20260505213905 | 63 | 306 | 6.1 | 13.0 | 0.00 | 0.00 | 0.00 | 61 | 1006.2 |
| 20260505213403 | 63 | 291 | 6.1 | 12.2 | 0.00 | 0.00 | 0.00 | 61 | 1006.2 |
| 20260505212904 | 63 | 280 | 7.0 | 15.6 | 0.00 | 0.00 | 0.00 | 60 | 1006.1 |
| 20260505212408 | 63 | 292 | 7.8 | 15.6 | 0.00 | 0.00 | 0.00 | 60 | 1006.1 |
| 20260505211905 | 64 | 246 | 7.8 | 16.5 | 0.00 | 0.00 | 0.00 | 60 | 1006.1 |
| 20260505211404 | 64 | 265 | 7.8 | 16.5 | 0.00 | 0.00 | 0.00 | 60 | 1006.2 |
| 20260505210903 | 64 | 264 | 7.0 | 15.6 | 0.00 | 0.00 | 0.00 | 59 | 1006.0 |
| 20260505210400 | 64 | 222 | 7.0 | 15.6 | 0.00 | 0.00 | 0.00 | 58 | 1006.0 |
| 20260505205901 | 64 | 254 | 7.8 | 20.9 | 0.00 | 0.00 | 0.00 | 58 | 1005.8 |
| 20260505205402 | 64 | 223 | 7.8 | 20.9 | 0.00 | 0.00 | 0.00 | 58 | 1005.6 |
| 20260505204902 | 64 | 302 | 7.8 | 14.8 | 0.00 | 0.00 | 0.00 | 59 | 1005.5 |
| 20260505204402 | 64 | 225 | 6.1 | 15.6 | 0.00 | 0.00 | 0.00 | 58 | 1005.2 |
| 20260505203901 | 64 | 243 | 6.1 | 15.6 | 0.00 | 0.00 | 0.00 | 58 | 1005.2 |
| 20260505203401 | 64 | 239 | 6.1 | 13.9 | 0.00 | 0.00 | 0.00 | 58 | 1005.1 |
| 20260505202901 | 64 | 214 | 6.1 | 13.0 | 0.00 | 0.00 | 0.00 | 58 | 1005.1 |
| 20260505202401 | 64 | 223 | 6.1 | 13.0 | 0.00 | 0.00 | 0.00 | 58 | 1005.0 |
| 20260505201901 | 64 | 250 | 4.3 | 12.2 | 0.00 | 0.00 | 0.00 | 59 | 1004.9 |
| 20260505201356 | 64 | 207 | 3.5 | 7.8 | 0.00 | 0.00 | 0.00 | 60 | 1004.9 |
| 20260505200850 | 63 | 267 | 3.5 | 8.7 | 0.00 | 0.00 | 0.00 | 60 | 1004.8 |
| 20260505200350 | 63 | 259 | 1.7 | 8.7 | 0.00 | 0.00 | 0.00 | 60 | 1004.7 |
| 20260505195848 | 63 | 260 | 0.0 | 4.3 | 0.00 | 0.00 | 0.00 | 64 | 1004.5 |
| 20260505195348 | 64 | 71 | 0.0 | 0.0 | 0.00 | 0.00 | 0.00 | 62 | 1004.2 |
| 20260505194846 | 64 | 71 | 0.0 | 0.0 | 0.00 | 0.00 | 0.00 | 63 | 1004.1 |
| 20260505194343 | 64 | 71 | 0.0 | 0.0 | 0.00 | 0.00 | 0.00 | 62 | 1004.1 |
| 20260505193843 | 64 | 71 | 0.0 | 0.0 | 0.00 | 0.00 | 0.00 | 61 | 1004.0 |
| 20260505193340 | 64 | 71 | 0.0 | 0.0 | 0.00 | 0.00 | 0.00 | 62 | 1003.9 |
| 20260505192840 | 64 | 71 | 0.0 | 0.0 | 0.00 | 0.00 | 0.00 | 62 | 1003.8 |
| 20260505192340 | 65 | 71 | 0.9 | 3.5 | 0.00 | 0.00 | 0.00 | 63 | 1003.8 |
| 20260505191838 | 65 | 71 | 0.9 | 3.5 | 0.00 | 0.00 | 0.00 | 62 | 1003.8 |
| 20260505191337 | 65 | 26 | 0.9 | 2.6 | 0.00 | 0.00 | 0.00 | 58 | 1003.7 |
| 20260505190837 | 65 | 26 | 0.9 | 2.6 | 0.00 | 0.00 | 0.00 | 58 | 1003.5 |
| 20260505190336 | 66 | 96 | 0.0 | 1.7 | 0.00 | 0.00 | 0.00 | 59 | 1003.5 |
| 20260505185835 | 66 | 96 | 0.0 | 1.7 | 0.00 | 0.00 | 0.00 | 57 | 1003.5 |
| 20260505185332 | 66 | 123 | 0.0 | 0.0 | 0.00 | 0.00 | 0.00 | 57 | 1003.4 |
| 20260505184831 | 67 | 123 | 0.0 | 0.0 | 0.00 | 0.00 | 0.00 | 55 | 1003.4 |
| 20260505184333 | 67 | 123 | 0.0 | 0.0 | 0.00 | 0.00 | 0.00 | 55 | 1003.4 |
| 20260505183833 | 68 | 123 | 0.0 | 0.0 | 0.00 | 0.00 | 0.00 | 55 | 1003.4 |
| 20260505183333 | 68 | 123 | 0.0 | 0.0 | 0.00 | 0.00 | 0.00 | 55 | 1003.4 |
| 20260505182825 | 68 | 123 | 0.0 | 0.0 | 0.00 | 0.00 | 0.00 | 53 | 1003.3 |
| 20260505182319 | 69 | 123 | 0.0 | 0.0 | 0.00 | 0.00 | 0.00 | 52 | 1003.4 |
| 20260505181826 | 69 | 123 | 0.0 | 0.0 | 0.00 | 0.00 | 0.00 | 50 | 1003.4 |
| 20260505181317 | 70 | 123 | 0.0 | 0.0 | 0.00 | 0.00 | 0.00 | 49 | 1003.4 |
| 20260505180816 | 71 | 123 | 0.0 | 0.0 | 0.00 | 0.00 | 0.00 | 48 | 1003.4 |
| 20260505180314 | 71 | 123 | 0.0 | 0.0 | 0.00 | 0.00 | 0.00 | 48 | 1003.4 |
| 20260505175812 | 72 | 123 | 0.0 | 0.0 | 0.00 | 0.00 | 0.00 | 48 | 1003.4 |
| 20260505175312 | 72 | 123 | 0.0 | 0.0 | 0.00 | 0.00 | 0.00 | 44 | 1003.4 |
| 20260505174808 | 73 | 123 | 0.0 | 0.0 | 0.00 | 0.00 | 0.00 | 43 | 1003.4 |
| 20260505174308 | 74 | 123 | 0.0 | 0.0 | 0.00 | 0.00 | 0.00 | 41 | 1003.5 |
| 20260505173809 | 74 | 123 | 0.0 | 1.7 | 0.00 | 0.00 | 0.00 | 39 | 1003.5 |
| 20260505173309 | 74 | 123 | 0.9 | 2.6 | 0.00 | 0.00 | 0.00 | 39 | 1003.5 |
| 20260505172809 | 75 | 123 | 1.7 | 2.6 | 0.00 | 0.00 | 0.00 | 38 | 1003.5 |
| 20260505172308 | 75 | 123 | 1.7 | 3.5 | 0.00 | 0.00 | 0.00 | 35 | 1003.5 |
| 20260505171808 | 75 | 123 | 1.7 | 3.5 | 0.00 | 0.00 | 0.00 | 35 | 1003.5 |
| 20260505171305 | 76 | 128 | 1.7 | 3.5 | 0.00 | 0.00 | 0.00 | 35 | 1003.5 |
| 20260505170804 | 76 | 131 | 1.7 | 3.5 | 0.00 | 0.00 | 0.00 | 34 | 1003.7 |
| 20260505170303 | 76 | 107 | 1.7 | 5.2 | 0.00 | 0.00 | 0.00 | 34 | 1003.7 |
| 20260505165758 | 76 | 100 | 1.7 | 5.2 | 0.00 | 0.00 | 0.00 | 33 | 1003.7 |
| 20260505165258 | 77 | 117 | 1.7 | 4.3 | 0.00 | 0.00 | 0.00 | 33 | 1003.8 |
| 20260505164758 | 77 | 142 | 2.6 | 6.1 | 0.00 | 0.00 | 0.00 | 33 | 1003.7 |
| 20260505164255 | 77 | 129 | 2.6 | 6.1 | 0.00 | 0.00 | 0.00 | 31 | 1003.7 |
| 20260505163745 | 77 | 119 | 3.5 | 7.0 | 0.00 | 0.00 | 0.00 | 32 | 1003.8 |
| 20260505163243 | 77 | 140 | 4.3 | 7.8 | 0.00 | 0.00 | 0.00 | 32 | 1003.9 |
| 20260505162738 | 77 | 146 | 3.5 | 7.8 | 0.00 | 0.00 | 0.00 | 32 | 1003.9 |
| 20260505162237 | 78 | 134 | 3.5 | 7.0 | 0.00 | 0.00 | 0.00 | 33 | 1003.9 |
| 20260505161737 | 78 | 138 | 5.2 | 8.7 | 0.00 | 0.00 | 0.00 | 32 | 1004.0 |
| 20260505161238 | 78 | 144 | 4.3 | 8.7 | 0.00 | 0.00 | 0.00 | 31 | 1004.1 |
| 20260505160736 | 78 | 148 | 3.5 | 7.8 | 0.00 | 0.00 | 0.00 | 32 | 1004.1 |
| 20260505160238 | 78 | 92 | 2.6 | 7.8 | 0.00 | 0.00 | 0.00 | 32 | 1004.2 |
| 20260505153229 | 78 | 115 | 5.2 | 12.2 | 0.00 | 0.00 | 0.00 | 31 | 1004.5 |
| 20260505152729 | 78 | 138 | 4.3 | 10.4 | 0.00 | 0.00 | 0.00 | 31 | 1004.5 |
| 20260505152229 | 78 | 13 | 4.3 | 9.6 | 0.00 | 0.00 | 0.00 | 31 | 1004.6 |
| 20260505151730 | 78 | 124 | 4.3 | 9.6 | 0.00 | 0.00 | 0.00 | 31 | 1004.7 |
| 20260505151229 | 78 | 124 | 4.3 | 11.3 | 0.00 | 0.00 | 0.00 | 31 | 1004.7 |
| 20260505150731 | 78 | 134 | 5.2 | 11.3 | 0.00 | 0.00 | 0.00 | 32 | 1004.7 |
| 20260505150230 | 78 | 141 | 5.2 | 9.6 | 0.00 | 0.00 | 0.00 | 32 | 1004.8 |
| 20260505140214 | 77 | 101 | 7.0 | 13.0 | 0.00 | 0.00 | 0.00 | 37 | 1005.6 |
| 20260505130141 | 75 | 84 | 4.3 | 9.6 | 0.00 | 0.00 | 0.00 | 40 | 1006.1 |
| 20260505124643 | 75 | 25 | 3.5 | 8.7 | 0.00 | 0.00 | 0.00 | 39 | 1006.4 |
| 20260505124140 | 75 | 140 | 3.5 | 8.7 | 0.00 | 0.00 | 0.00 | 38 | 1006.4 |
| 20260505123639 | 75 | 117 | 5.2 | 13.0 | 0.00 | 0.00 | 0.00 | 38 | 1006.5 |
| 20260505123141 | 76 | 61 | 7.0 | 15.6 | 0.00 | 0.00 | 0.00 | 36 | 1006.5 |
| 20260505122639 | 76 | 143 | 7.0 | 15.6 | 0.00 | 0.00 | 0.00 | 36 | 1006.4 |